TimePDT,TemperatureF,Dew PointF,Humidity,Sea Level PressureIn,VisibilityMPH,Wind Direction,Wind SpeedMPH,Gust SpeedMPH,PrecipitationIn,Events,Conditions,WindDirDegrees,DateUTC
12:15 AM,46.4,33.8,62,30.20,10.0,Calm,Calm,-,N/A,,Clear,0,2013-07-29 07:15:00
12:55 AM,44.6,32.0,61,30.20,10.0,Calm,Calm,-,N/A,,Clear,0,2013-07-29 07:55:00
1:15 AM,44.6,33.8,66,30.20,10.0,Calm,Calm,-,N/A,,Clear,0,2013-07-29 08:15:00
1:35 AM,44.6,33.8,66,30.20,10.0,Calm,Calm,-,N/A,,Clear,0,2013-07-29 08:35:00
1:55 AM,44.6,32.0,61,30.20,10.0,Calm,Calm,-,N/A,,Clear,0,2013-07-29 08:55:00
2:15 AM,44.6,32.0,61,30.19,10.0,Calm,Calm,-,N/A,,Clear,0,2013-07-29 09:15:00
2:35 AM,42.8,32.0,66,30.19,10.0,Calm,Calm,-,N/A,,Clear,0,2013-07-29 09:35:00
2:55 AM,42.8,33.8,70,30.20,10.0,Calm,Calm,-,N/A,,Clear,0,2013-07-29 09:55:00
3:15 AM,42.8,32.0,66,30.20,10.0,Calm,Calm,-,N/A,,Clear,0,2013-07-29 10:15:00
3:35 AM,42.8,32.0,66,30.19,10.0,Calm,Calm,-,N/A,,Clear,0,2013-07-29 10:35:00
3:55 AM,42.8,32.0,66,30.19,10.0,Calm,Calm,-,N/A,,Clear,0,2013-07-29 10:55:00
4:15 AM,42.8,32.0,66,30.19,10.0,Calm,Calm,-,N/A,,Clear,0,2013-07-29 11:15:00
4:35 AM,42.8,32.0,66,30.20,10.0,Calm,Calm,-,N/A,,Clear,0,2013-07-29 11:35:00
4:55 AM,42.8,32.0,66,30.20,10.0,Calm,Calm,-,N/A,,Clear,0,2013-07-29 11:55:00
5:15 AM,42.8,32.0,66,30.20,10.0,Calm,Calm,-,N/A,,Clear,0,2013-07-29 12:15:00
5:35 AM,42.8,33.8,70,30.20,10.0,Calm,Calm,-,N/A,,Clear,0,2013-07-29 12:35:00
5:55 AM,42.8,33.8,70,30.21,10.0,Calm,Calm,-,N/A,,Clear,0,2013-07-29 12:55:00
6:15 AM,42.8,33.8,70,30.22,10.0,Calm,Calm,-,N/A,,Clear,0,2013-07-29 13:15:00
6:35 AM,42.8,35.6,76,30.22,10.0,Calm,Calm,-,N/A,,Clear,0,2013-07-29 13:35:00
6:55 AM,46.4,35.6,66,30.22,10.0,Calm,Calm,-,N/A,,Clear,0,2013-07-29 13:55:00
7:15 AM,50.0,41.0,71,30.23,10.0,West,3.5,-,N/A,,Clear,270,2013-07-29 14:15:00
7:35 AM,53.6,41.0,62,30.23,10.0,Calm,Calm,-,N/A,,Clear,0,2013-07-29 14:35:00
7:55 AM,55.4,39.2,54,30.23,10.0,West,4.6,-,N/A,,Clear,280,2013-07-29 14:55:00
8:15 AM,60.8,33.8,36,30.23,10.0,WSW,3.5,-,N/A,,Clear,240,2013-07-29 15:15:00
8:35 AM,62.6,30.2,30,30.23,10.0,WSW,5.8,-,N/A,,Clear,250,2013-07-29 15:35:00
8:55 AM,64.4,26.6,24,30.24,10.0,WSW,5.8,-,N/A,,Clear,250,2013-07-29 15:55:00
9:15 AM,68.0,28.4,23,30.25,10.0,West,6.9,-,N/A,,Clear,270,2013-07-29 16:15:00
9:35 AM,68.0,30.2,24,30.25,10.0,West,9.2,-,N/A,,Clear,270,2013-07-29 16:35:00
9:55 AM,69.8,30.2,23,30.25,10.0,West,9.2,-,N/A,,Clear,280,2013-07-29 16:55:00
10:15 AM,69.8,26.6,20,30.25,10.0,West,10.4,-,N/A,,Clear,270,2013-07-29 17:15:00
10:35 AM,69.8,28.4,21,30.26,10.0,West,10.4,-,N/A,,Clear,270,2013-07-29 17:35:00
10:55 AM,69.8,30.2,23,30.26,10.0,West,10.4,-,N/A,,Clear,260,2013-07-29 17:55:00
11:15 AM,71.6,28.4,20,30.27,10.0,WSW,6.9,-,N/A,,Clear,250,2013-07-29 18:15:00
11:35 AM,71.6,28.4,20,30.27,10.0,West,10.4,-,N/A,,Clear,270,2013-07-29 18:35:00
11:55 AM,71.6,28.4,20,30.27,10.0,WSW,8.1,-,N/A,,Clear,250,2013-07-29 18:55:00
12:15 PM,73.4,28.4,19,30.28,10.0,West,8.1,-,N/A,,Clear,260,2013-07-29 19:15:00
12:35 PM,73.4,28.4,19,30.28,10.0,West,10.4,-,N/A,,Clear,270,2013-07-29 19:35:00
12:55 PM,73.4,28.4,19,30.28,10.0,SW,4.6,-,N/A,,Clear,230,2013-07-29 19:55:00
1:15 PM,73.4,28.4,19,30.28,10.0,West,6.9,-,N/A,,Clear,260,2013-07-29 20:15:00
1:35 PM,73.4,28.4,19,30.28,10.0,West,10.4,-,N/A,,Clear,260,2013-07-29 20:35:00
1:55 PM,75.2,30.2,19,30.28,10.0,West,9.2,-,N/A,,Clear,270,2013-07-29 20:55:00
2:15 PM,73.4,30.2,20,30.28,10.0,West,11.5,-,N/A,,Scattered Clouds,270,2013-07-29 21:15:00
2:35 PM,75.2,32.0,21,30.28,10.0,West,6.9,-,N/A,,Scattered Clouds,270,2013-07-29 21:35:00
2:55 PM,73.4,32.0,22,30.28,10.0,West,9.2,-,N/A,,Scattered Clouds,260,2013-07-29 21:55:00
3:15 PM,75.2,30.2,19,30.28,10.0,West,12.7,-,N/A,,Scattered Clouds,270,2013-07-29 22:15:00
3:35 PM,73.4,32.0,22,30.28,10.0,WSW,10.4,-,N/A,,Scattered Clouds,250,2013-07-29 22:35:00
3:55 PM,73.4,32.0,22,30.28,10.0,West,11.5,-,N/A,,Clear,260,2013-07-29 22:55:00
4:15 PM,73.4,32.0,22,30.27,10.0,West,11.5,-,N/A,,Clear,270,2013-07-29 23:15:00
4:35 PM,73.4,32.0,22,30.28,10.0,West,13.8,-,N/A,,Clear,270,2013-07-29 23:35:00
4:55 PM,73.4,33.8,23,30.28,10.0,West,11.5,-,N/A,,Clear,270,2013-07-29 23:55:00
5:15 PM,73.4,33.8,23,30.28,10.0,West,10.4,-,N/A,,Clear,270,2013-07-30 00:15:00
5:35 PM,71.6,33.8,25,30.28,10.0,West,10.4,-,N/A,,Clear,260,2013-07-30 00:35:00
5:55 PM,71.6,35.6,27,30.27,10.0,West,12.7,-,N/A,,Clear,270,2013-07-30 00:55:00
6:15 PM,69.8,33.8,27,30.27,10.0,West,12.7,-,N/A,,Clear,270,2013-07-30 01:15:00
6:35 PM,69.8,33.8,27,30.28,10.0,West,10.4,-,N/A,,Clear,270,2013-07-30 01:35:00
6:55 PM,68.0,32.0,26,30.28,10.0,West,9.2,-,N/A,,Clear,270,2013-07-30 01:55:00
7:15 PM,68.0,33.8,28,30.29,10.0,West,6.9,-,N/A,,Clear,280,2013-07-30 02:15:00
7:35 PM,66.2,33.8,30,30.29,10.0,West,6.9,-,N/A,,Clear,270,2013-07-30 02:35:00
7:55 PM,64.4,35.6,34,30.29,10.0,West,6.9,-,N/A,,Clear,260,2013-07-30 02:55:00
8:15 PM,64.4,33.8,32,30.29,10.0,West,3.5,-,N/A,,Clear,260,2013-07-30 03:15:00
8:35 PM,62.6,35.6,37,30.30,10.0,WNW,3.5,-,N/A,,Clear,300,2013-07-30 03:35:00
8:55 PM,62.6,37.4,39,30.30,10.0,Calm,Calm,-,N/A,,Clear,0,2013-07-30 03:55:00
9:15 PM,60.8,37.4,42,30.31,10.0,Calm,Calm,-,N/A,,Clear,0,2013-07-30 04:15:00
9:35 PM,59.0,37.4,45,30.32,10.0,Calm,Calm,-,N/A,,Clear,0,2013-07-30 04:35:00
9:55 PM,59.0,37.4,45,30.32,10.0,Calm,Calm,-,N/A,,Clear,0,2013-07-30 04:55:00
10:15 PM,57.2,37.4,48,30.32,10.0,Calm,Calm,-,N/A,,Clear,0,2013-07-30 05:15:00
10:35 PM,55.4,37.4,51,30.32,10.0,Calm,Calm,-,N/A,,Clear,0,2013-07-30 05:35:00
10:55 PM,55.4,37.4,51,30.32,10.0,Calm,Calm,-,N/A,,Clear,0,2013-07-30 05:55:00
11:15 PM,53.6,39.2,58,30.32,10.0,Calm,Calm,-,N/A,,Clear,0,2013-07-30 06:15:00
11:35 PM,53.6,37.4,54,30.33,10.0,Calm,Calm,-,N/A,,Clear,0,2013-07-30 06:35:00
11:55 PM,51.8,37.4,58,30.33,10.0,Calm,Calm,-,N/A,,Clear,0,2013-07-30 06:55:00